FW0671 Weather Reports


Display with metric or nautical units.
time (UTC)temp
F
wind
direction
speed
MPH
gust
MPH
rain 1hr
in
rain 24hr
in
rain mn
in
humidity
%
barometer
mb
20260509173030 54 179 0.0 0.0 0.00 0.00 0.00 73 1014.8
20260509171526 54 179 0.0 1.0 0.00 0.00 0.00 72 1014.8
20260509164517 56 179 0.0 2.0 0.00 0.00 0.00 70 1014.6
20260509163014 56 179 0.0 5.0 0.00 0.00 0.00 68 1014.6
20260509161512 57 178 0.0 6.0 0.00 0.00 0.00 67 1014.3
20260509154511 59 173 0.0 5.0 0.00 0.00 0.00 64 1014.3
20260509153020 60 172 0.0 1.0 0.00 0.00 0.00 63 1014.1
20260509151503 61 172 0.0 2.0 0.00 0.00 0.00 61 1014.2
20260509144501 63 252 0.0 5.0 0.00 0.00 0.00 59 1014.1
20260509143059 63 140 0.0 7.0 0.00 0.00 0.00 57 1014.0
20260509141556 64 152 0.0 8.0 0.00 0.00 0.00 56 1014.1
20260509134555 65 161 0.0 5.0 0.00 0.00 0.00 55 1014.1
20260509133054 65 155 2.0 10.0 0.00 0.00 0.00 54 1014.3
20260509131552 66 194 2.0 10.0 0.00 0.00 0.00 54 1014.4
20260509124554 66 131 2.0 13.0 0.00 0.00 0.00 54 1014.7
20260509123050 66 182 1.0 10.0 0.00 0.00 0.00 54 1014.6
20260509121548 65 162 0.0 7.0 0.00 0.00 0.00 55 1014.7
20260509114545 65 117 1.0 14.0 0.00 0.00 0.00 54 1015.0
20260509113044 65 163 0.0 8.0 0.00 0.00 0.00 56 1015.4
20260509111542 65 148 0.0 8.0 0.00 0.00 0.00 55 1015.5
20260509104539 64 160 0.0 8.0 0.00 0.00 0.00 55 1016.3
20260509103040 63 216 1.0 10.0 0.00 0.00 0.00 56 1016.5
20260509101536 63 169 1.0 7.0 0.00 0.00 0.00 57 1016.8
20260509094536 62 146 3.0 10.0 0.00 0.00 0.00 57 1017.7
20260509093033 61 194 0.0 11.0 0.00 0.00 0.00 57 1017.8
20260509091544 62 184 1.0 5.0 0.00 0.00 0.00 57 1017.9
20260509084532 61 169 0.0 7.0 0.00 0.00 0.00 57 1018.3
20260509083026 60 199 1.0 9.0 0.00 0.00 0.00 59 1018.7
20260509081522 59 237 0.0 8.0 0.00 0.00 0.00 60 1018.8
20260509074523 58 242 0.0 10.0 0.00 0.00 0.00 62 1019.2
20260509073033 56 142 0.0 4.0 0.00 0.00 0.00 64 1019.2
20260509071521 55 245 0.0 3.0 0.00 0.00 0.00 69 1019.0
20260509064518 52 225 0.0 3.0 0.00 0.00 0.00 73 1018.4
20260509063027 51 225 0.0 3.0 0.00 0.00 0.00 77 1018.2
20260509061516 48 225 0.0 6.0 0.00 0.00 0.00 83 1018.3
20260509054517 44 112 0.0 0.0 0.00 0.00 0.00 87 1018.0
20260509053021 0 0.0 0.0 0.00 0.00 0.00 1017.8
20260509051514 0 0.0 0.0 0.00 0.00 0.00 1017.7
20260509044505 0 0.0 0.0 0.00 0.00 0.00 1017.7
20260509043001 0 0.0 0.0 0.00 0.00 0.00 1017.7
20260509041559 41 111 0.0 0.0 0.00 0.00 0.00 86 1017.6
20260509034604 42 111 0.0 0.0 0.00 0.00 0.00 85 1017.5
20260509033133 42 112 0.0 0.0 0.00 0.00 0.00 85 1017.5
20260509031559 42 112 0.0 0.0 0.00 0.00 0.00 85 1017.4
20260509024607 41 111 0.0 0.0 0.00 0.00 0.00 86 1017.2
20260509023058 41 111 0.0 0.0 0.00 0.00 0.00 86 1017.2
20260509021558 41 111 0.0 0.0 0.00 0.00 0.00 86 1017.3
20260509014559 41 112 0.0 0.0 0.00 0.00 0.00 86 1017.3
20260509013103 41 111 0.0 0.0 0.00 0.00 0.00 86 1017.3
20260509011602 41 112 0.0 0.0 0.00 0.00 0.00 86 1017.5
20260509004600 41 112 0.0 0.0 0.00 0.00 0.00 86 1017.6
20260509003102 41 112 0.0 0.0 0.00 0.00 0.00 86 1017.6
20260509001557 41 112 0.0 0.0 0.00 0.00 0.00 85 1017.7
20260508234603 41 111 0.0 0.0 0.00 0.00 0.00 85 1017.9
20260508233105 41 111 0.0 0.0 0.00 0.00 0.00 85 1017.9
20260508231555 42 112 0.0 0.0 0.00 0.00 0.00 84 1017.7
20260508224557 42 111 0.0 0.0 0.00 0.00 0.00 84 1017.7
20260508223056 42 112 0.0 0.0 0.00 0.00 0.00 84 1017.7
20260508221557 42 111 0.0 0.0 0.00 0.00 0.00 84 1017.5
20260508214554 42 112 0.0 0.0 0.00 0.00 0.00 84 1017.7
20260508213056 42 112 0.0 0.0 0.00 0.00 0.00 83 1017.8
20260508211553 43 112 0.0 0.0 0.00 0.00 0.00 83 1018.1
20260508204552 43 112 0.0 0.0 0.00 0.00 0.00 83 1018.1
20260508203050 43 112 0.0 0.0 0.00 0.00 0.00 83 1018.2
20260508201549 43 111 0.0 0.0 0.00 0.00 0.00 83 1018.2
20260508194604 44 112 0.0 0.0 0.00 0.00 0.00 82 1018.2
20260508193113 44 112 0.0 0.0 0.00 0.00 0.00 82 1018.3
20260508191557 44 111 0.0 0.0 0.00 0.00 0.00 82 1018.2
20260508184546 45 112 0.0 0.0 0.00 0.00 0.00 80 1018.2
20260508183044 46 111 0.0 0.0 0.00 0.00 0.00 80 1018.1
20260508181546 46 112 0.0 0.0 0.00 0.00 0.00 79 1017.9
20260508174541 47 112 0.0 0.0 0.00 0.00 0.00 77 1017.8